SCP
0 0 0 0 0 0 0 0 0 0 0 0 0 0 0 0 0 0 0 0 0 1 1 1 1 1 1 1 1 1 1 1 1 1 1 1 1 1 1 0 0 0 0 0 0 0 0 0 0
0 0 0 0 0 0 0 0 0 0 0 0 0 0 0 0 0 0 0 0 0 1 1 1 1 1 1 1 1 1 1 1 1 1 1 1 1 1 1 0 0 0 0 0 0 0 0 0 0
0 0 0 0 0 0 0 0 0 0 0 0 0 0 0 0 0 0 0 0 1 1 1 1 1 1 1 1 1 1 1 1 1 1 1 1 1 1 1 0 0 0 0 0 0 0 0 0 0
0 0 0 0 0 0 0 0 0 0 0 0 0 0 0 0 0 0 0 1 1 1 1 1 1 1 1 1 1 1 1 1 1 1 1 1 1 1 1 0 0 0 0 0 0 0 0 0 0
0 0 0 0 0 0 0 0 0 0 0 0 0 0 0 0 0 0 1 1 1 1 1 1 1 2 1 1 1 1 1 1 1 1 1 1 1 1 1 0 0 0 0 0 0 0 0 0 0
0 0 0 0 0 0 0 0 0 0 0 0 0 0 0 0 0 1 1 1 1 1 1 1 1 1 1 1 1 1 1 1 1 1 1 1 1 1 0 0 0 0 0 0 0 0 0 0 0
0 0 0 0 0 0 0 0 0 0 0 0 0 0 0 0 1 1 1 1 1 1 1 1 1 1 1 1 1 1 1 1 1 1 1 1 1 1 0 0 0 0 0 0 0 0 0 0 0
0 0 0 0 0 0 0 0 0 0 0 0 0 0 0 1 1 1 1 1 1 1 1 1 1 1 1 1 1 1 1 1 1 1 1 1 1 1 0 0 0 0 0 0 0 0 0 0 0
0 0 0 0 0 0 0 0 0 0 0 0 0 0 1 1 1 1 1 1 1 1 1 1 1 1 1 1 1 1 1 1 1 1 1 1 1 0 0 0 0 0 0 0 0 0 0 0 0
0 0 0 0 0 0 0 0 0 0 0 0 0 1 1 1 1 1 1 1 1 1 1 1 1 1 1 1 1 1 1 1 1 1 1 1 0 0 0 0 0 0 0 0 0 0 0 0 0
0 0 0 0 0 0 0 0 0 0 0 0 0 1 1 1 1 1 1 1 1 1 1 1 1 1 1 1 1 1 1 1 1 1 1 1 0 0 0 0 0 0 0 0 0 0 0 0 0
0 0 0 0 0 0 0 0 0 0 0 0 0 1 1 1 1 1 1 1 1 1 1 1 1 1 1 1 1 1 1 1 1 1 1 1 0 0 0 0 0 0 0 0 0 0 0 0 0
0 0 0 0 0 0 0 0 0 0 0 0 1 1 1 1 1 1 1 1 1 1 1 1 1 1 1 1 1 1 1 1 1 1 1 0 0 0 0 0 0 0 0 0 0 0 0 0 0
0 0 0 0 0 0 0 0 0 0 0 0 1 1 1 1 1 1 1 1 1 1 1 1 1 1 1 1 1 1 1 1 1 0 0 0 0 0 0 0 0 0 0 0 0 0 0 0 0
0 0 0 0 0 0 0 0 0 0 0 0 1 1 1 1 1 1 1 1 1 1 1 1 1 1 1 1 1 1 1 1 0 0 0 0 0 0 0 0 0 0 0 0 0 0 0 0 0
0 0 0 0 0 0 0 0 0 0 0 0 0 1 1 1 1 1 1 1 1 1 1 1 1 1 1 1 1 1 1 0 0 0 0 0 0 0 0 0 0 0 0 0 0 0 0 0 0
0 0 0 0 0 0 0 0 0 0 0 0 0 0 1 1 1 1 1 1 1 1 1 1 1 1 1 1 1 1 1 0 0 0 0 0 0 0 0 0 0 0 0 0 0 0 0 0 0
0 0 0 0 0 0 0 0 0 0 0 0 0 0 1 1 1 1 1 1 1 1 1 1 1 1 1 1 1 1 1 0 0 0 0 0 0 0 0 0 0 0 0 0 0 0 0 0 0
0 0 0 0 0 0 0 0 0 0 0 0 0 0 0 0 0 0 0 1 1 1 1 1 1 1 1 1 1 1 1 0 0 0 0 0 0 0 0 0 0 0 0 0 0 0 0 0 0
0 0 0 0 0 0 0 0 0 0 0 0 0 0 0 0 0 0 0 0 1 1 1 1 1 1 1 1 1 1 0 0 0 0 0 0 0 0 0 0 0 0 0 0 0 0 0 0 0
0 0 0 0 0 0 0 0 0 0 0 0 0 0 0 0 0 0 0 0 0 1 1 1 1 1 1 1 1 1 0 0 0 0 0 0 0 0 0 0 0 0 0 0 0 0 0 0 0
0 0 0 0 0 0 0 0 0 0 0 0 0 0 0 0 0 0 0 0 0 0 1 1 1 1 1 1 1 1 1 0 0 0 0 0 0 0 0 0 0 0 0 0 0 0 0 0 0
0 0 0 0 0 0 0 0 0 0 0 0 0 0 0 0 0 0 0 0 0 0 0 1 1 1 1 1 1 1 1 0 0 0 0 0 0 0 0 0 0 0 0 0 0 0 0 0 0
0 0 0 0 0 0 0 0 0 0 0 0 0 0 0 0 0 0 0 0 0 0 0 0 1 1 1 1 1 1 1 1 0 0 0 0 0 0 0 0 0 0 0 0 0 0 0 0 0
0 0 0 0 0 0 0 0 0 0 0 0 0 0 0 0 0 0 0 0 0 0 0 0 1 1 1 1 1 1 1 1 0 0 0 0 0 0 0 0 0 0 0 0 0 0 0 0 0
0 0 0 0 0 0 0 0 0 0 0 0 0 0 0 0 0 0 0 0 0 0 0 0 0 0 0 1 1 1 1 1 0 0 0 0 0 0 0 0 0 0 0 0 0 0 0 0 0
0 0 0 0 0 0 0 0 0 0 0 0 0 0 0 0 0 0 0 0 0 0 0 0 0 0 0 0 0 0 0 0 0 0 0 0 0 0 0 0 0 0 0 0 0 0 0 0 0
0 0 0 0 0 0 0 0 0 0 0 0 0 0 0 0 0 0 0 0 0 0 0 0 0 0 0 0 0 0 0 0 0 0 0 0 0 0 0 0 0 0 0 0 0 0 0 0 0
0 0 0 0 0 0 0 0 0 0 0 0 0 0 0 0 0 0 0 0 0 0 0 0 0 0 0 0 0 0 0 0 0 0 0 0 0 0 0 0 0 0 0 0 0 0 0 0 0
0 0 0 0 0 0 0 0 0 0 0 0 0 0 0 0 0 0 0 0 0 0 0 0 0 0 0 0 0 0 0 0 0 0 0 0 0 0 0 0 0 0 0 0 0 0 0 0 0
Wind_Speed
1 1 2 3 5 5 2 4 2 3 2 1 3 4 5 4 4 3 1 8 13 13 12 14 16 17 17 17 16 16 15 15 15 15 14 14 14 13 13 12 11 11 10 10 9 8 8 8 8
1 1 3 5 5 2 4 3 3 2 1 2 4 4 4 2 2 4 4 7 13 13 10 12 16 17 17 16 16 16 15 15 14 14 14 13 13 12 11 11 10 10 9 9 9 8 8 7 7
0 2 4 5 3 3 3 3 2 2 1 2 3 4 3 1 2 3 4 11 11 10 9 12 18 17 17 16 16 15 15 14 14 13 13 12 11 11 10 10 10 9 9 8 8 8 7 7 6
2 4 5 5 1 4 4 4 1 1 2 3 3 3 2 2 2 4 10 13 12 9 7 10 17 17 16 16 15 15 14 14 13 13 12 11 10 10 9 9 9 9 8 8 8 7 7 6 5
4 5 5 3 3 4 4 4 2 0 1 2 3 3 2 4 6 10 11 12 12 10 7 9 15 15 16 15 15 14 14 13 13 12 11 11 10 9 9 8 8 8 8 7 7 7 6 5 5
5 5 5 1 4 5 4 3 0 1 1 2 3 3 1 2 6 9 10 9 10 10 8 8 14 15 15 15 14 14 13 13 12 11 11 10 9 9 8 8 7 7 7 7 7 6 5 5 4
5 5 3 2 3 4 2 2 1 0 1 2 3 4 1 3 5 8 8 8 7 8 8 7 8 10 14 14 14 13 13 12 11 11 10 10 9 9 8 7 7 7 6 6 6 6 5 5 5
5 5 2 1 2 4 2 2 1 0 1 2 3 5 5 6 8 8 7 7 6 6 6 6 6 6 6 8 13 13 12 12 11 11 10 10 9 8 8 7 7 7 7 6 6 6 5 5 5
4 5 0 3 3 3 2 1 2 1 1 1 1 2 4 12 11 9 8 6 6 6 6 6 6 5 5 6 9 10 11 11 10 9 10 8 4 4 4 6 7 7 7 7 7 6 6 5 4
4 3 4 4 3 3 2 1 2 1 1 0 1 2 8 12 12 11 10 10 9 9 8 6 6 6 6 6 5 4 4 4 4 3 4 3 2 2 3 4 6 7 7 7 7 7 6 4 2
2 4 4 4 3 3 2 2 1 3 3 5 6 8 11 11 10 11 10 10 9 8 7 6 5 5 5 3 3 2 2 3 3 4 3 2 2 2 2 1 2 3 4 3 3 3 2 2 2
1 3 3 3 1 1 2 1 0 3 6 4 6 10 12 13 12 11 10 8 6 6 6 5 5 5 5 3 3 3 3 3 3 3 3 3 2 2 2 2 2 2 2 2 2 1 2 2 3
2 3 3 3 3 2 1 1 1 3 3 1 5 9 11 12 11 8 6 5 4 5 5 5 5 5 5 3 3 3 3 3 3 2 3 3 3 3 3 2 2 2 2 2 2 2 2 3 3
2 3 4 3 2 1 1 2 1 4 1 3 5 8 9 9 9 6 6 6 6 5 5 5 5 6 5 4 4 3 3 3 3 3 3 4 3 3 3 3 2 3 3 3 3 3 3 2 2
1 3 6 3 3 2 2 4 3 4 1 3 3 5 6 6 6 7 8 8 7 7 6 6 6 5 5 5 5 3 3 3 3 3 3 3 3 3 3 3 3 3 2 3 2 2 2 2 2
4 4 4 6 3 2 3 4 6 2 2 2 2 3 4 4 5 5 5 5 5 6 6 6 6 5 5 4 4 3 2 3 2 2 3 4 4 4 3 3 3 2 2 2 2 2 2 2 2
6 3 3 7 4 2 1 5 7 2 1 1 1 2 2 2 2 3 4 4 5 5 5 5 4 4 4 3 2 2 2 2 2 2 2 3 4 4 3 3 2 2 2 2 2 1 2 2 2
2 2 3 5 4 2 2 5 6 3 0 1 1 1 1 2 3 2 2 3 4 4 4 4 4 3 3 2 1 1 1 2 1 2 3 3 3 4 3 2 2 2 2 2 1 2 2 2 2
2 2 4 6 4 1 3 4 5 3 1 1 1 2 2 2 1 1 1 2 3 3 3 4 4 3 3 3 2 2 2 2 1 2 2 3 3 3 3 2 2 2 2 2 2 1 2 1 1
2 1 4 5 3 0 2 4 4 2 2 3 3 3 2 1 1 1 1 1 2 3 3 3 3 3 2 2 2 2 1 1 2 1 2 2 3 3 3 3 2 2 1 1 1 1 1 1 1
2 3 4 4 3 3 2 5 4 3 2 2 2 3 2 2 2 2 2 2 2 3 4 4 3 3 3 2 1 1 1 0 0 1 1 2 2 2 1 3 2 1 1 2 2 2 2 1 1
4 4 4 2 1 3 2 4 6 4 4 3 4 3 3 2 2 2 2 2 3 3 3 3 3 2 2 2 2 3 2 3 3 2 1 1 1 2 2 2 2 1 1 1 2 2 2 2 2
3 2 1 0 1 2 3 1 8 3 4 6 5 4 4 3 2 2 2 3 2 2 2 2 2 2 2 2 3 3 3 3 1 1 1 1 1 2 2 2 2 1 1 1 1 1 2 2 2
0 4 4 4 4 2 2 1 7 4 5 5 5 4 4 3 2 1 1 2 1 1 1 1 1 1 2 2 3 3 3 2 1 1 1 1 1 1 1 2 1 1 1 1 1 1 2 2 2
5 5 5 6 5 5 2 2 9 6 4 4 5 5 3 2 2 1 1 1 1 1 1 1 1 2 1 2 3 3 3 3 3 2 2 2 1 0 0 0 1 1 1 1 1 1 1 2 2
1 4 4 3 4 6 4 5 7 4 3 3 3 3 2 2 1 2 2 1 1 2 1 1 2 2 1 1 2 2 2 2 2 2 2 2 1 1 1 1 1 1 1 1 1 1 1 1 2
1 1 3 4 1 3 6 6 8 2 4 4 5 4 3 2 1 2 1 1 1 1 1 1 1 1 1 1 1 1 2 2 2 1 1 2 1 1 1 1 1 1 1 1 1 1 1 1 2
2 3 4 3 0 4 6 5 5 6 6 6 5 5 4 3 1 1 0 0 1 0 1 1 1 1 1 1 1 1 1 2 2 2 1 1 1 1 1 1 1 1 1 0 0 1 1 1 2
3 3 3 2 3 2 4 7 5 5 5 5 6 5 5 3 2 1 1 0 1 1 2 1 1 1 1 1 1 0 0 1 1 2 2 2 1 1 1 1 1 1 1 1 1 1 1 1 2
1 2 4 1 3 3 3 9 5 3 4 4 6 5 4 3 2 1 0 1 2 1 1 1 1 0 0 0 1 1 1 2 1 1 1 1 1 1 1 1 1 0 0 1 0 1 1 1 2
Wind_Direction
280 86 105 75 55 46 301 269 258 305 328 327 128 137 141 146 171 197 98 135 134 143 151 154 154 150 146 143 139 136 133 131 130 130 132 134 137 139 141 143 145 145 144 141 139 137 134 131 131
115 115 68 62 78 34 291 268 278 269 255 62 71 76 79 66 63 110 124 137 138 144 148 154 156 152 148 146 143 141 139 137 136 136 137 138 140 142 144 145 147 148 148 146 145 143 140 137 138
182 80 83 73 99 179 263 273 259 320 11 55 69 63 80 98 132 150 149 138 134 141 147 158 157 154 151 149 148 146 144 143 142 142 142 142 144 146 149 151 152 153 154 153 151 149 148 147 146
94 53 55 70 236 228 236 266 276 336 13 47 94 85 70 23 154 144 137 140 138 142 148 161 159 157 155 153 152 152 150 149 149 149 149 149 150 152 155 158 158 158 161 162 160 158 159 160 158
64 77 61 30 279 267 258 267 268 191 58 65 104 110 43 11 92 125 137 143 146 148 151 162 161 160 159 158 158 157 156 155 156 156 156 157 157 159 162 165 167 169 172 172 170 170 173 174 174
60 69 79 316 291 287 276 267 299 66 107 93 106 112 36 89 115 135 140 143 148 152 154 160 166 165 165 164 163 162 162 162 163 164 164 165 166 168 171 173 176 179 181 183 184 185 189 190 196
102 97 134 224 288 305 299 343 34 90 135 161 137 126 173 153 143 140 138 135 139 149 154 160 167 170 170 169 168 167 167 167 169 170 172 173 175 179 182 185 189 191 194 196 199 199 204 210 216
121 103 94 265 268 284 298 355 344 111 193 132 137 160 198 181 142 129 124 125 137 149 160 161 161 163 167 171 173 172 173 174 177 177 179 182 184 188 192 194 200 205 208 212 217 220 220 222 226
91 75 128 229 220 261 288 1 322 329 110 109 177 207 176 139 136 133 132 137 154 165 171 167 163 163 165 170 179 178 180 182 182 184 186 187 188 190 201 206 209 216 220 224 228 231 231 235 244
87 120 231 225 207 218 263 230 221 85 44 314 29 76 124 139 152 157 162 169 176 180 182 178 175 170 167 179 175 171 178 178 178 174 183 178 172 193 207 224 223 227 230 232 235 236 241 243 245
144 197 240 259 224 207 223 252 185 143 238 220 196 165 150 155 167 175 181 183 182 179 179 179 176 173 174 179 168 165 167 168 174 180 179 168 169 194 216 218 243 244 239 236 243 245 233 224 226
190 252 239 269 226 202 201 205 209 198 235 227 182 163 161 168 181 186 187 187 174 169 178 171 172 177 180 178 176 173 175 178 182 187 181 175 190 212 222 220 222 222 227 218 217 219 228 227 230
220 275 284 274 301 252 219 252 227 264 271 119 139 152 170 176 182 188 182 168 162 171 173 174 176 183 183 179 187 186 188 190 182 187 191 189 197 215 225 234 225 222 215 210 214 222 228 235 235
250 284 300 312 335 8 61 331 45 283 296 116 142 162 179 184 183 174 170 177 179 180 179 173 177 189 182 180 183 188 192 195 180 196 198 199 203 210 212 219 221 222 219 210 207 216 223 235 239
333 346 347 352 356 353 61 348 291 278 111 115 159 178 181 189 181 184 185 186 182 180 178 182 186 185 185 184 183 182 189 188 194 201 201 203 207 209 207 206 217 223 216 209 201 209 210 228 234
33 34 351 313 346 359 80 289 292 314 121 141 181 185 190 200 191 190 182 179 175 173 179 188 193 188 192 193 185 182 188 190 201 201 196 199 200 202 202 202 214 215 195 197 195 194 204 220 229
26 14 319 312 330 26 92 270 294 313 122 210 222 206 195 195 199 191 178 174 173 177 177 181 189 187 187 187 187 175 173 185 199 203 204 205 200 202 194 199 204 190 184 190 204 192 198 218 233
286 306 300 292 298 360 305 274 299 317 104 238 260 221 195 197 220 199 170 164 166 165 165 174 175 173 162 161 161 176 176 201 193 208 218 214 207 202 192 194 197 178 175 184 188 203 196 206 222
199 221 272 273 275 307 275 286 299 308 345 324 276 225 219 229 220 151 142 133 133 143 157 170 171 173 161 165 180 198 210 218 221 220 217 208 207 195 183 187 184 179 185 192 181 192 197 201 163
188 255 274 286 306 206 289 302 291 267 236 231 234 234 227 264 357 45 140 129 141 166 174 168 180 180 174 186 184 183 187 222 222 243 236 214 205 193 178 162 170 174 167 164 171 159 164 203 156
266 218 246 260 327 14 358 323 306 301 305 293 282 251 249 217 241 241 194 174 172 186 183 179 185 186 187 188 149 113 81 31 273 244 241 229 192 163 139 141 147 145 155 189 198 189 178 206 200
276 260 235 246 6 314 15 295 290 299 308 292 289 291 284 265 238 226 217 198 192 197 182 170 171 176 189 172 171 173 193 217 225 218 212 197 163 137 120 120 109 111 164 187 201 186 183 182 208
250 327 22 334 143 353 2 213 287 321 293 279 276 274 273 265 237 227 221 200 200 187 170 163 159 174 167 162 193 185 204 219 222 200 162 151 139 124 124 126 113 143 195 232 218 194 188 196 203
42 33 37 49 66 355 278 195 279 264 251 282 288 280 266 258 256 246 211 153 145 140 150 148 151 203 191 177 194 194 198 192 185 196 175 170 127 108 108 113 128 176 186 234 244 229 211 213 209
42 55 13 358 6 263 287 235 252 259 260 260 275 285 280 267 264 269 248 180 170 174 187 173 183 236 227 197 198 201 195 182 192 200 190 172 147 129 270 100 205 211 218 225 220 220 257 225 215
340 127 150 238 251 281 312 250 256 269 293 297 303 305 318 300 272 247 231 200 197 211 203 193 199 240 242 202 213 217 205 192 207 203 190 179 180 198 198 228 248 246 241 233 205 190 247 251 237
39 67 167 150 257 285 282 286 303 327 344 340 339 342 321 299 262 231 202 192 203 222 218 215 182 200 217 199 200 214 212 198 209 216 187 182 189 190 170 206 237 261 256 238 198 212 243 253 249
82 137 75 83 279 286 293 288 276 298 307 317 325 317 309 324 326 302 170 80 109 137 54 62 118 164 212 189 194 202 219 207 202 187 204 215 214 183 188 197 221 245 264 258 208 239 265 267 271
1 48 79 107 171 196 284 277 249 265 281 290 300 311 310 302 286 283 303 44 59 63 69 59 80 113 169 167 167 99 290 199 188 190 202 205 211 206 198 201 211 236 262 276 249 257 266 274 290
210 153 132 143 266 208 234 269 281 280 299 303 306 311 312 301 298 297 78 73 57 53 65 79 84 85 291 70 97 65 52 78 91 196 181 192 190 193 179 173 174 218 304 319 290 287 291 275 281